Tracking 25693 objects as of 1-Jul-2022
HD Live streaming from Space Station
objects crossing your sky now

STARLINK-1877

Track STARLINK-1877 now!
10-day predictions
STARLINK-1877 is classified as:


NORAD ID: 47162
Int'l Code: 2020-088AS
Perigee: 553.3 km
Apogee: 555.5 km
Inclination: 53.1 °
Period: 95.6 minutes
Semi major axis: 6925 km
RCS: Unknown
Launch date: November 25, 2020
Source: United States (US)
Launch site: AIR FORCE EASTERN TEST RANGE (AFETR)
aabbcc
Your satellite tracking list
Your tracking list is empty




NASA's NSSDC Master Catalog

Two Line Element Set (TLE):
1 47162U 20088AS  22182.52962432  .00000728  00000-0  67810-4 0  9999
2 47162  53.0548 229.2638 0001608  65.7125 294.4032 15.06393959 88796
Source of the keplerian elements: AFSPC